Location: Hermaringen
(48.5952°N, 10.2585°E)
Time: 01:52:43
(UTC+00:00)

A-11 Canister half - Pass Details

Date: 23 February 2026
Orbit: 1513 x 1686 km, 47.2° (Epoch: 14 March)

Event Time Altitude Azimuth Distance (km) Brightness Sun altitude
Rises 20:35:17 0° 254° (WSW) 4,939 12.2 -36.3°
Reaches altitude 10° 20:38:28 10° 254° (WSW) 3,948 11.5 -36.8°
Enters shadow 20:47:39 74° 223° (SW) 1,728 9.0 -38.0°
